Location: Ciechanow
(52.8812°N, 20.6195°E)
Time: 11:59:38
(UTC+01:00)

ISS - Pass Details

Date: 26 January 2019
Orbit: 403 x 411 km, 51.6° (Epoch: 21 February)

Event Time Altitude Azimuth Distance (km) Brightness Sun altitude
Rises 17:38:17 0° 220° (SW) 2,327 1.0 -13.1°
Reaches altitude 10° 17:40:35 10° 206° (SSW) 1,471 -0.4 -13.4°
Maximum altitude 17:43:20 25° 150° (SSE) 885 -2.3 -13.8°
Enters shadow 17:44:27 20° 118° (ESE) 1,007 -2.3 -14.0°
